| time (UTC) | temp C | wind direction | speed KPH | gust KPH | rain 1hr cm | rain 24hr cm | rain mn cm | humidity % | barometer mb |
| 20260504191537 | 7 | 216 | 9.7 | 24.1 | 0.00 | 1.12 | 0.46 | 83 | 999.4 |
| 20260504190038 | 7 | 264 | 12.9 | 25.7 | 0.00 | 1.12 | 0.46 | 84 | 999.3 |
| 20260504184537 | 7 | 236 | 9.7 | 25.7 | 0.00 | 1.12 | 0.46 | 84 | 999.2 |
| 20260504183038 | 7 | 207 | 14.5 | 32.2 | 0.00 | 1.12 | 0.46 | 86 | 999.1 |
| 20260504181538 | 6 | 246 | 12.9 | 25.7 | 0.00 | 1.12 | 0.46 | 90 | 999.0 |
| 20260504180043 | 5 | 190 | 6.4 | 25.7 | 0.00 | 1.12 | 0.46 | 90 | 999.0 |
| 20260504174538 | 5 | 245 | 14.5 | 29.0 | 0.00 | 1.12 | 0.46 | 89 | 998.6 |
| 20260504173037 | 5 | 212 | 17.7 | 35.4 | 0.00 | 1.12 | 0.46 | 90 | 998.3 |
| 20260504171547 | 5 | 193 | 19.3 | 35.4 | 0.00 | 1.12 | 0.46 | 91 | 998.1 |
| 20260504081541 | 2 | 263 | 9.7 | 16.1 | 0.08 | 0.84 | 0.18 | 96 | 977.0 |
| 20260504044536 | 5 | 4 | 3.2 | 8.0 | 0.00 | 0.66 | 0.00 | 86 | 976.1 |
| 20260504043046 | 5 | 92 | 4.8 | 19.3 | 0.00 | 0.66 | 0.00 | 85 | 976.3 |
| 20260504041540 | 5 | 102 | 9.7 | 22.5 | 0.00 | 0.66 | 0.00 | 85 | 976.7 |
| 20260504040041 | 5 | 85 | 8.0 | 22.5 | 0.00 | 0.66 | 0.00 | 86 | 977.2 |
| 20260504034538 | 6 | 142 | 4.8 | 19.3 | 0.00 | 0.66 | 0.00 | 87 | 977.6 |
| 20260504033038 | 6 | 0 | 3.2 | 16.1 | 0.00 | 0.66 | 0.00 | 88 | 977.6 |
| 20260504031540 | 5 | 0 | 1.6 | 24.1 | 0.00 | 0.66 | 0.00 | 88 | 978.0 |
| 20260504030041 | 5 | 0 | 4.8 | 19.3 | 0.00 | 0.66 | 0.00 | 89 | 978.2 |
| 20260504024539 | 5 | 70 | 9.7 | 38.6 | 0.00 | 0.66 | 0.66 | 87 | 978.3 |
| 20260504023038 | 5 | 19 | 11.3 | 45.1 | 0.00 | 0.66 | 0.66 | 87 | 979.0 |
| 20260504021551 | 5 | 7 | 9.7 | 33.8 | 0.00 | 0.66 | 0.66 | 87 | 980.1 |
| 20260504020037 | 5 | 21 | 16.1 | 43.5 | 0.00 | 0.66 | 0.66 | 87 | 981.3 |
| 20260504014540 | 5 | 127 | 19.3 | 57.9 | 0.00 | 0.66 | 0.66 | 85 | 981.8 |
| 20260504013049 | 5 | 107 | 19.3 | 64.4 | 0.00 | 0.66 | 0.66 | 86 | 981.4 |
| 20260504011538 | 5 | 83 | 32.2 | 67.6 | 0.00 | 0.66 | 0.66 | 87 | 981.8 |
| 20260504010044 | 6 | 121 | 57.9 | 86.9 | 0.03 | 0.66 | 0.66 | 87 | 981.7 |
| 20260504004537 | 5 | 83 | 53.1 | 86.9 | 0.05 | 0.66 | 0.66 | 88 | 981.4 |
| 20260504003038 | 5 | 75 | 56.3 | 83.7 | 0.08 | 0.66 | 0.66 | 88 | 982.2 |
| 20260504001540 | 5 | 94 | 45.1 | 74.0 | 0.08 | 0.66 | 0.66 | 88 | 983.9 |
| 20260504000042 | 5 | 110 | 45.1 | 74.0 | 0.05 | 0.64 | 0.64 | 89 | 984.6 |
| 20260503234540 | 5 | 95 | 32.2 | 59.5 | 0.03 | 0.61 | 0.61 | 89 | 986.9 |
| 20260503233042 | 5 | 48 | 19.3 | 45.1 | 0.08 | 0.58 | 0.58 | 90 | 988.5 |
| 20260503231537 | 5 | 47 | 12.9 | 37.0 | 0.15 | 0.58 | 0.58 | 93 | 990.2 |
| 20260503230038 | 4 | 85 | 14.5 | 35.4 | 0.18 | 0.58 | 0.58 | 95 | 991.8 |
| 20260503224537 | 3 | 18 | 14.5 | 30.6 | 0.20 | 0.58 | 0.58 | 95 | 992.4 |
| 20260503223041 | 3 | 23 | 11.3 | 22.5 | 0.20 | 0.51 | 0.51 | 94 | 993.2 |
| 20260503221539 | 3 | 336 | 9.7 | 16.1 | 0.18 | 0.43 | 0.43 | 93 | 994.1 |
| 20260503220038 | 3 | 8 | 6.4 | 17.7 | 0.18 | 0.41 | 0.41 | 93 | 994.8 |
| 20260503214541 | 3 | 87 | 12.9 | 29.0 | 0.15 | 0.38 | 0.38 | 92 | 995.5 |
| 20260503213037 | 4 | 31 | 17.7 | 29.0 | 0.10 | 0.30 | 0.30 | 92 | 994.7 |
| 20260503211538 | 4 | 43 | 17.7 | 35.4 | 0.08 | 0.25 | 0.25 | 93 | 996.0 |
| 20260503210040 | 4 | 31 | 14.5 | 33.8 | 0.13 | 0.23 | 0.23 | 92 | 996.1 |
| 20260503204539 | 5 | 359 | 11.3 | 33.8 | 0.15 | 0.23 | 0.23 | 91 | 996.9 |
| 20260503203044 | 5 | 358 | 11.3 | 32.2 | 0.18 | 0.20 | 0.20 | 90 | 998.0 |
| 20260503201543 | 5 | 19 | 8.0 | 19.3 | 0.18 | 0.18 | 0.18 | 89 | 999.0 |
| 20260503200038 | 5 | 53 | 16.1 | 35.4 | 0.10 | 0.10 | 0.10 | 87 | 999.2 |
| 20260503194538 | 5 | 62 | 12.9 | 29.0 | 0.08 | 0.08 | 0.08 | 84 | 1000.3 |
| 20260503193045 | 6 | 58 | 20.9 | 29.0 | 0.03 | 0.03 | 0.03 | 78 | 1001.1 |